Other Public Products
Issued by NWS Grand Forks, ND

Home | Current Version | Previous Version | Graphics & Text | Print | Product List | Glossary On
Versions: 1 2 3 4 5 6 7 8 9 10 11 12 13 14 15 16 17 18 19 20 21 22 23 24 25 26 27 28 29 30 31 32 33 34 35 36 37 38 39 40 41 42 43 44 45 46 47 48 49 50
000
FPUS83 KFGF 010831
OPUFGF
PRAIRIE TO PINES WEATHER ROUNDUP
NATIONAL WEATHER SERVICE EASTERN NORTH DAKOTA/GRAND FORKS ND
300 AM CDT SAT OCT 01 2016

 **SATELLITE DATA USED TO AUGMENT SKY COVER AT AUTOMATED STATIONS**
 *****  WEATHER ACROSS EASTERN NORTH DAKOTA  *****

CITY           SKY/WX    TMP DP  RH WIND       PRES   REMARKS
GRAND FORKS    CLOUDY    54  48  80 SE7       30.17S
GRAND FORKS AF CLOUDY    53  49  86 SE5       30.17S
GRAND CITY NWS   N/A     54 N/A N/A SE5         N/A
BUXTON           N/A     59  58  97 SE5         N/A
DEVILS LAKE    CLOUDY    57  49  74 SE12      30.14S
FARGO          PTCLDY    55  48  77 SE9       30.17S
WAHPETON ARPT  CLOUDY    46  45  93 SE3       30.19S
$$

 *****  WEATHER ACROSS CENTRAL AND WESTERN NORTH DAKOTA  *****

CITY           SKY/WX    TMP DP  RH WIND       PRES   REMARKS
JAMESTOWN      CLOUDY    55  47  74 SE12      30.12F
BISMARCK       PTCLDY    59  45  59 S9        30.05F
MINOT          CLEAR     50  46  86 SE7       30.03F
MINOT AFB      CLEAR     48  45  89 SE7       30.03F
GARRISON         N/A     56  48  74 SE8       30.04S
WILLISTON      CLEAR     50  46  86 NE5       29.99S
DICKINSON      CLEAR     48  44  86 SE7       29.99S
HETTINGER      CLEAR     51  44  77 E3        30.02S
$$

 *****  OTHER OBSERVATIONS NORTHEAST NORTH DAKOTA  *****

CITY           SKY/WX    TMP DP  RH WIND       PRES   REMARKS
WALHALLA       FAIR      55  50  82 SE3       30.16S
LANGDON        PTSUNNY   57  50  77 SE12G18   30.15S
CAVALIER       FAIR      55  50  82 S7        30.16F
GRAFTON        FAIR      54  52  94 SE7       30.18F
CANDO          CLOUDY    55  52  88 SE9       30.14S
FORT TOTTEN      N/A     56  47  72 S10       29.95S
ROLLA            N/A     55  48  76 SE9       30.12F
RUGBY          FAIR      55  48  76 SE9       30.08F
 ***** THE ABOVE OBSERVATIONS ARE NON NWS ARE NOT QUALITY
        CONTROLLED AND MAY MIS-REPORT RAIN FOR SNOW...
$$

 *****  OTHER OBSERVATIONS SOUTHEAST NORTH DAKOTA *****

CITY           SKY/WX    TMP DP  RH WIND       PRES   REMARKS
COOPERSTOWN    FAIR      55  48  76 SE13G18   30.15F
VALLEY CITY    FAIR      55  48  76 S12       30.16F
OAKES          NOT AVBL
GWINNER        FAIR      48  46  93 SE3       30.16F
SHEYENNE NWR     N/A     46  44  93 E3        29.95S
BUFFALO          N/A     50  46  87 SE8         N/A
WYNDMERE         N/A     45  45 100 SE2         N/A
 ***** THE ABOVE OBSERVATIONS ARE NON NWS ARE NOT QUALITY
       CONTROLLED AND MAY MIS-REPORT RAIN FOR SNOW...
$$

  *****  WEATHER ACROSS NORTHERN MINNESOTA  *****

CITY           SKY/WX    TMP DP  RH WIND       PRES   REMARKS
FLAG ISLAND    PTCLDY    55  52  88 S9        30.23S
WARROAD        CLOUDY    52  48  87 SE6       30.23F
ROSEAU         CLOUDY    52  46  82 CALM      30.22S
HALLOCK        CLOUDY    55  52  88 SE8       30.17F
THF RVR FALLS  MOCLDY    50  48  93 E7        30.21F
HALSTAD          N/A     47  45  91 SE8         N/A
FOSSTON        PTCLDY    46  43  87 SE5       30.21F
BAUDETTE       PTCLDY    46  45  96 SE6       30.25F
WASKISH        CLOUDY    43  43 100 CALM      30.24S
CROOKSTON      MOCLDY    54  48  82 SE8       30.19F
$$
  *****  WEATHER ACROSS CENTRAL AND WEST MINNESOTA  *****

CITY           SKY/WX    TMP DP  RH WIND       PRES   REMARKS
BEMIDJI        CLOUDY    47  47  99 SE6       30.23F
PARK RAPIDS    FOG       48  46  93 SE5       30.23S VSB 1/2
WADENA         FOG       46  46 100 E6        30.22S VSB 1/4
DETROIT LAKES  CLOUDY    50  46  87 SE5       30.21F
MOORHEAD       PTCLDY    52  48  87 SE7       30.18F
FERGUS FALLS   CLEAR     52  48  87 E7        30.21S
ELBOW LAKE     FAIR      51  50  95 SE9       30.19F
MORRIS MN      CLEAR     46  46 100 E7        30.18F
STAPLES        CLOUDY    50  48  93 SE3       30.23R FOG
WHEATON        PTCLDY    45  45 100 CALM      30.20S
$$
  *****  WEATHER ELSEWHERE ACROSS MINNESOTA  *****

CITY           SKY/WX    TMP DP  RH WIND       PRES   REMARKS
DULUTH         CLOUDY    51  51 100 E10       30.25S FOG
INTRNTL FALLS  PTCLDY    44  44 100 SE5       30.26S
ELY            CLEAR     45  43  93 CALM      30.26F
CLOQUET        CLOUDY    52  48  87 E8        30.24F
BRAINERD       CLOUDY    53  51  93 CALM      30.23F
HIBBING        CLEAR     37  37 100 CALM      30.25F
ALEXANDRIA     CLEAR     50  50 100 E7        30.22S
SAINT CLOUD    CLOUDY    52  52 100 NE5       30.21F
MINNEAPOLIS    CLEAR     57  51  80 NE5       30.19F
$$

  *****  WEATHER ACROSS SOUTH DAKOTA  *****

CITY           SKY/WX    TMP DP  RH WIND       PRES   REMARKS
SIOUX FALLS    CLOUDY    48  46  93 NE5       30.17F
BROOKINGS      PTCLDY    48  46  93 CALM      30.17F
WATERTOWN      PTCLDY    53  48  83 SE5       30.17F
HURON          CLOUDY    50  45  83 S6        30.14S
SISSETON         N/A     45  42  89 SE3       30.16F
ABERDEEN       PTCLDY    55  45  68 SE8       30.13S
MITCHELL       PTCLDY    49  44  83 S5        30.15F
PIERRE         CLOUDY    60  44  55 SE16      30.06S
MOBRIDGE       CLOUDY    60  44  55 SE13      30.04S
RAPID CITY     CLEAR     51  47  86 SE6       30.03S
$$

  *****  SOME WEATHER IN NEARBY STATES *****

CITY           SKY/WX    TMP DP  RH WIND       PRES   REMARKS
GLASGOW MT     CLEAR     54  50  86 VRB5      29.96S
GREAT FALLS MT CLOUDY    55  42  61 S7        29.95R
CHEYENNE WY    CLEAR     51  44  77 W5        30.20S
SCOTTSBLUFF NE CLEAR     51  46  83 E7        30.10F
OMAHA NE       CLOUDY    57  53  86 CALM      30.15S
DES MOINES IA  CLOUDY    60  58  92 N6        30.12S
DAVENPORT IA   CLOUDY    60  57  89 N8        30.07F
CHICAGO IL     MOCLDY    60  56  86 E6        30.04S
EAU CLAIRE WI  MOCLDY    57  53  86 N6        30.18F
LA CROSSE WI   CLOUDY    63  55  75 NE6       30.14F
$$

  *****  SOME NATIONAL WEATHER *****

CITY           SKY/WX    TMP DP  RH WIND       PRES   REMARKS
LA GUARDIA NY  CLOUDY    58  55  90 N15       30.20F
RALEIGH NC     MOCLDY    69  67  93 CALM      30.03S
ATLANTA GA     CLEAR     57  50  77 NW8       30.05F
NEW ORLEANS LA PTCLDY    69  61  75 CALM      30.05F
OKLAHOMA CITY  CLOUDY    59  52  77 CALM      30.11F
ALBUQUERQUE NM PTCLDY    60  53  77 E5        30.22R
SALT LAKE CITY CLEAR     65  50  58 SE13      30.06S
LOS ANGELES CA CLEAR     68  58  70 S5        29.98R
BOISE ID       MOCLDY    72  46  39 S13       29.87R
SEATTLE WA     CLOUDY    53  47  79 SE5       29.99R
$$

*** WEATHER ACROSS MANITOBA...SASKATCHEWAN AND ONTARIO ***
                ***ONTARIO***

CITY           SKY/WX    TMP DP  RH WIND       PRES   REMARKS
GERALDTON      PTCLDY    39  39 100 CALM      30.33F
THUNDER BAY    CLEAR     43  43 100 S5        30.29F
SIOUX LOOKOUT  PTCLDY    45  43  93 SE5       30.28F
TORONTO        MOCLDY    55  52  88 E8        30.18F
BIG TROUT LK   PTCLDY    54  50  87 S5        30.25F
PICKLE LAKE    NOT AVBL
DRYDEN         MOCLDY    52  48  87 S8        30.27S
KENORA         NOT AVBL
$$
                *** MANITOBA***

CITY           SKY/WX    TMP DP  RH WIND       PRES   REMARKS
BRANDON        CLOUDY    57  50  77 SE7       30.10S
DAUPHIN        CLOUDY    55  52  88 SE6       30.06F
ISLAND LAKE    CLOUDY    54  48  82 S5        30.18F
PILOT MOUND      N/A     55  50  82 S10         N/A
THE PAS        CLEAR     50  48  93 NE6       30.02R
THOMPSON       CLOUDY    48  48 100 E5        30.13
WINNIPEG       MOCLDY    55  52  88 SE12      30.17F
LYNN LAKE      LGT RAIN  45  45 100 NE12G20   30.14F FOG
CHURCHILL      LGT RAIN  41  37  87 E5        30.36R
GILLAM         FOG       50  50 100 E6        30.17F VSB 3/8
$$
                ***SASKATCHEWAN***

CITY           SKY/WX    TMP DP  RH WIND       PRES   REMARKS
ESTEVAN        PTCLDY    50  48  93 E10       30.01F
KINDERSLEY     CLEAR     46  45  93 N12       30.04R
LLOYDMINSTER   CLOUDY    46  46 100 NE13      30.09F
PRINCE ALBERT  CLOUDY    52  50  93 NE8       30.05
REGINA         CLEAR     48  46  93 SE8       30.01F
YORKTON        MOCLDY    52  50  93 SE5       30.05R   C1F1C2F2C3F3C4F4C5F5C6F6C7F7C8F8C9F9CaFaCbFbCcFcCdFdCe!


USA.gov is the U.S. government's official web portal to all federal, state and local government web resources and services.